Location: Ch?enovice
(49.7164°N, 15.2160°E)
Time: 05:02:45
(UTC+00:00)

CZ-2D R/B - Pass Details

Date: 23 May 2024
Orbit: 791 x 843 km, 98.8° (Epoch: 15 June)

Event Time Altitude Azimuth Distance (km) Brightness Sun altitude
Rises 01:49:54 0° 11° (N) 3,414 6.5 -9.8°
Reaches altitude 10° 01:52:21 10° 6° (N) 2,474 5.5 -9.5°
Maximum altitude 01:57:35 48° 294° (WNW) 1,093 2.7 -9.0°
Enters shadow 02:02:43 10° 221° (SW) 2,420 3.9 -8.4°
